User: anonymous   Login
Location: Azul
(36.7830°S, 59.8500°W)
Time: 10:34:51
(UTC-03:00)
Language:

KAITUO 1B - Orbit

View from above orbital plane
View from above orbital plane
View from above satellite
View from above satellite

Ground track
Ground track

The orbit data is extracted from the following two-line orbital elements,

1 40912U 15049P   21295.07693519  .00003525  00000-0  15600-3 0  9994
2 40912  97.4444 303.3870 0015736  62.2735  10.6998 15.22218903337459
Epoch (UTC): 22 October 2021 01:50:47
Eccentricity: 0.0015736
inclination: 97.4444°
perigee height: 488 km
apogee height: 510 km
right ascension of ascending node: 303.3870°
argument of perigee: 62.2735°
revolutions per day: 15.22218903
mean anomaly at epoch: 10.6998°
orbit number at epoch: 33745

The dashed part of the orbit path shows where the satellite is in the earth's shadow,  

DLR